SCP
0 0 0 0 0 0 0 0 0 0 0 0 0 0 0 0 0 0 0 0 0 0 0 0 0 0 0 0 0 0 0 0 0 0 0 0 0 0 0 0 0 0 0
0 0 0 0 0 0 0 0 0 0 0 0 0 0 0 0 0 0 0 0 0 0 0 0 0 0 0 0 0 0 0 0 0 0 0 0 0 0 0 0 0 0 0
0 0 0 0 0 0 0 0 0 0 0 0 0 0 0 0 0 0 0 0 0 0 0 0 0 0 0 0 0 0 0 0 0 0 0 0 0 0 0 0 0 0 0
0 0 0 0 0 0 0 0 0 0 0 0 0 0 0 0 0 0 0 0 0 0 0 0 0 0 0 0 0 0 0 0 0 0 0 0 0 0 0 0 0 0 0
0 0 0 0 0 0 0 0 0 0 0 0 0 0 0 0 0 0 0 0 0 0 0 0 0 0 0 0 0 0 0 0 0 0 0 0 0 0 0 0 0 0 0
0 0 0 0 0 0 0 0 0 0 0 0 0 0 0 0 0 0 0 0 0 0 0 0 0 0 0 0 0 0 0 0 0 0 0 0 0 0 0 0 0 0 0
0 0 0 0 0 0 0 0 0 0 0 0 0 0 0 0 0 0 0 0 0 0 0 0 0 0 0 0 0 0 0 0 0 0 0 0 0 0 0 0 0 0 0
0 0 0 0 0 0 0 0 0 0 0 0 0 0 0 0 0 0 0 0 0 0 0 0 0 0 0 0 0 0 0 0 0 0 0 0 0 0 0 0 0 0 0
0 0 0 0 0 0 0 0 0 0 0 0 0 0 0 0 0 0 0 0 0 0 0 0 0 0 0 0 0 0 0 0 0 0 0 0 0 0 0 0 0 0 0
0 0 0 0 0 0 0 0 0 0 0 0 0 0 0 0 0 0 0 0 0 0 0 0 0 0 0 0 0 0 0 0 0 0 0 0 0 0 0 0 0 0 0
0 0 0 0 0 0 0 0 0 0 0 0 0 0 0 0 0 0 0 0 0 0 0 0 0 0 0 0 0 0 0 0 0 0 0 0 0 0 0 0 0 0 0
0 0 0 0 0 0 0 0 0 0 0 0 0 0 0 0 0 0 0 0 0 0 0 0 0 0 0 0 0 0 0 0 0 0 0 0 0 0 0 0 0 0 0
0 0 0 0 0 0 0 0 0 0 0 0 0 0 0 0 0 0 0 0 0 0 0 0 0 0 0 0 0 0 0 0 0 0 0 0 0 0 0 0 0 0 0
0 0 0 0 0 0 0 0 0 0 0 0 0 0 0 0 0 0 0 0 0 0 0 0 0 0 0 0 0 0 0 0 0 0 0 0 0 0 0 0 0 0 0
0 0 0 0 0 0 0 0 0 0 0 0 0 0 0 0 0 0 0 0 0 0 0 0 0 0 0 0 0 0 0 0 0 0 0 0 0 0 0 0 0 0 0
0 0 0 0 0 0 0 0 0 0 0 0 0 0 0 0 0 0 0 0 0 0 0 0 0 0 0 0 0 0 0 0 0 0 0 0 0 0 0 0 0 0 0
0 0 0 0 0 0 0 0 0 0 0 0 0 0 0 0 0 0 0 0 0 0 0 0 0 0 0 0 0 0 0 0 0 0 0 0 0 0 0 0 0 0 0
0 0 0 0 0 0 0 0 0 0 0 0 0 0 0 0 0 0 0 0 0 0 0 0 0 0 0 0 0 0 0 0 0 0 0 0 0 0 0 0 0 0 0
0 0 0 0 0 0 0 0 0 0 0 0 0 0 0 0 0 0 0 0 0 0 0 0 0 0 0 0 0 0 0 0 0 0 0 0 0 0 0 0 0 0 0
0 0 0 0 0 0 0 0 0 0 0 0 0 0 0 0 0 0 0 0 0 0 0 0 0 0 0 0 0 0 0 0 0 0 0 0 0 0 0 0 0 0 0
0 0 0 0 0 0 0 0 0 0 0 0 0 0 0 0 0 0 0 0 0 0 0 0 0 0 0 0 0 0 0 0 0 0 0 0 0 0 0 0 0 0 0
0 0 0 0 0 0 0 0 0 0 0 0 0 0 0 0 0 0 0 0 0 0 0 0 0 0 0 0 0 0 0 0 0 0 0 0 0 0 0 0 0 0 0
0 0 0 0 0 0 0 0 0 0 0 0 0 0 0 0 0 0 0 0 0 0 0 0 0 0 0 0 0 0 0 0 0 0 0 0 0 0 0 0 0 0 0
0 0 0 0 0 0 0 0 0 0 0 0 0 0 0 0 0 0 0 0 0 0 0 0 0 0 0 0 0 0 0 0 0 0 0 0 0 0 0 0 0 0 0
0 0 0 0 0 0 0 0 0 0 0 0 0 0 0 0 0 0 0 0 0 0 0 0 0 0 0 0 0 0 0 0 0 0 0 0 0 0 0 0 0 0 0
0 0 0 0 0 0 0 0 0 0 0 0 0 0 0 0 0 0 0 0 0 0 0 0 0 0 0 0 0 0 0 0 0 0 0 0 0 0 0 0 0 0 0
Wind_Speed
14 14 15 14 14 14 14 14 14 13 13 14 13 13 12 12 11 10 9 9 8 7 5 5 5 4 3 3 3 3 3 4 6 6 6 5 7 9 9 9 10 11 9
15 15 15 15 15 15 15 14 14 14 13 13 13 12 12 11 10 9 8 7 7 6 5 4 3 2 3 3 3 4 4 4 6 8 8 8 8 9 9 10 10 9 10
15 15 15 15 15 14 14 13 13 13 13 12 12 11 10 9 8 7 7 6 5 4 3 3 3 3 4 3 4 5 5 5 6 8 9 7 8 7 9 10 10 8 10
14 15 15 14 13 13 12 12 12 11 12 11 10 9 9 8 7 6 5 4 4 3 3 3 4 4 5 5 4 5 6 7 7 8 8 8 7 8 8 8 9 8 9
14 14 13 12 12 12 11 11 10 10 10 9 9 8 7 7 7 7 5 5 4 3 3 3 3 4 6 6 7 7 7 7 8 8 8 8 8 8 8 8 9 10 10
13 12 12 11 12 11 10 9 9 9 8 8 8 8 8 8 8 8 9 5 4 4 5 5 4 4 2 5 7 8 9 10 10 10 9 9 10 10 8 8 9 10 9
11 11 11 11 10 9 9 8 8 8 8 7 7 7 7 8 5 5 8 8 6 6 6 6 6 4 5 6 5 10 13 15 15 11 12 11 11 10 10 10 9 10 11
10 10 9 9 9 8 8 8 7 6 6 5 5 5 5 7 4 4 8 8 5 5 6 6 6 6 5 7 11 11 10 8 7 9 9 10 10 9 9 10 11 11 11
9 9 8 8 8 8 7 7 5 5 4 4 4 4 4 6 5 6 10 8 5 6 5 5 5 6 7 6 10 11 10 7 5 9 10 11 12 13 11 9 9 8 9
8 8 7 7 7 7 6 5 5 3 3 3 4 4 5 5 6 6 10 8 6 6 5 3 2 3 5 7 10 11 10 8 8 6 7 10 11 11 13 11 9 8 8
7 7 7 7 6 6 5 4 3 3 3 3 4 3 4 5 5 4 7 8 8 8 6 5 3 2 6 8 10 10 9 10 11 9 7 6 5 5 5 6 6 7 8
6 6 6 5 4 4 3 2 2 3 2 2 3 3 2 2 4 3 3 6 8 9 7 6 6 9 12 12 10 7 10 11 8 7 6 5 5 5 5 5 6 7 7
5 5 4 3 2 1 2 2 2 2 4 4 4 4 4 4 3 4 6 9 9 8 7 8 11 12 13 10 9 10 10 7 6 6 6 6 6 6 6 6 6 6 6
4 3 2 1 1 1 2 3 4 5 5 5 5 5 5 5 6 7 7 5 5 5 6 7 9 11 10 8 7 6 6 5 6 6 7 7 6 6 5 5 5 5 4
2 1 1 0 1 1 2 4 5 6 7 7 7 6 7 6 8 9 9 9 9 9 10 7 5 4 4 4 4 4 4 4 5 5 6 6 6 6 5 5 5 5 5
1 1 1 1 1 1 1 4 6 5 4 4 5 7 5 6 8 9 9 10 10 10 9 5 5 5 6 6 6 6 6 6 7 7 7 7 7 7 7 6 5 5 5
1 2 2 2 1 1 2 1 3 5 3 2 0 2 5 7 7 8 9 10 9 9 5 5 5 6 6 6 7 7 7 7 7 7 7 8 8 8 8 7 7 6 6
2 1 2 1 1 2 2 2 2 2 3 4 4 1 2 4 5 7 9 8 3 3 4 5 5 6 6 6 7 7 8 8 8 8 8 8 8 8 8 8 7 8 7
2 1 1 2 1 2 2 2 3 3 3 4 3 3 0 3 5 6 7 4 5 5 6 6 6 6 6 6 6 7 8 8 9 8 8 8 8 8 8 8 7 6 6
2 3 2 0 2 2 2 3 3 3 3 4 4 4 3 2 2 3 4 5 6 6 7 7 6 7 7 7 8 8 8 8 9 8 8 8 8 8 8 9 8 7 7
2 5 4 2 2 2 3 3 3 3 3 3 4 4 5 4 3 5 5 6 6 7 7 8 7 7 7 8 8 10 11 9 9 9 9 8 8 8 8 8 8 8 8
1 3 3 3 3 3 2 2 2 2 2 2 2 3 2 3 3 4 5 6 6 6 7 7 7 7 8 9 9 9 10 10 10 10 9 8 7 8 8 8 8 8 9
2 2 3 3 3 4 2 1 2 2 2 2 2 1 1 3 4 4 5 6 6 6 7 7 7 8 8 8 7 8 9 10 10 10 10 8 7 7 7 7 8 8 9
2 2 3 3 2 2 2 2 2 2 2 2 2 2 2 3 3 5 5 6 6 6 7 7 7 10 12 9 8 8 9 10 11 9 10 8 7 7 7 7 8 9 8
3 3 3 2 2 2 2 3 3 2 2 2 2 2 2 3 4 4 5 6 7 7 8 7 7 8 11 12 12 11 12 11 9 10 10 7 8 8 7 8 7 8 9
3 3 3 2 2 2 2 3 3 3 3 3 2 2 3 3 4 5 5 6 6 6 7 6 9 11 13 11 13 12 11 11 11 12 10 6 7 8 9 7 8 7 8
Wind_Direction
61 65 67 68 69 71 73 73 74 74 74 75 74 72 69 65 63 64 64 60 61 55 49 54 46 22 6 350 339 321 313 311 302 305 310 309 301 296 304 301 297 292 286
66 68 69 70 70 72 72 72 75 76 75 76 75 72 69 65 61 61 62 59 58 52 39 32 21 7 350 323 326 318 318 321 298 304 306 301 301 298 297 297 295 296 302
71 72 71 70 71 73 74 75 75 77 76 74 72 72 70 67 65 62 63 60 54 46 25 0 341 330 309 318 306 306 305 298 295 295 297 303 297 300 302 296 299 302 298
76 76 75 74 74 75 75 76 76 77 77 76 75 76 76 75 71 68 67 60 50 36 11 336 324 322 321 318 298 296 303 306 297 290 292 297 298 304 303 306 310 311 312
79 79 80 81 80 79 78 79 80 81 83 86 87 86 81 70 53 40 45 48 28 10 353 331 340 351 350 329 322 326 315 305 302 298 299 301 307 316 315 319 311 312 308
84 84 86 86 85 85 86 88 89 90 91 91 87 82 73 66 51 23 357 16 6 353 345 331 307 234 242 253 263 282 294 295 302 304 300 304 308 312 318 312 310 310 311
90 92 93 94 95 98 101 101 100 98 94 87 82 79 79 80 56 18 350 333 347 351 339 328 320 346 302 306 276 249 252 244 248 274 291 298 306 315 316 311 310 310 309
93 93 95 99 100 102 102 98 96 92 88 82 73 64 68 84 60 3 327 301 328 331 324 317 316 317 348 340 314 301 294 281 256 252 278 293 302 310 308 300 297 294 293
95 96 99 102 104 103 99 95 90 86 80 75 63 47 46 86 63 9 330 314 330 326 318 317 316 316 55 347 301 296 299 303 252 234 256 271 280 278 277 286 293 300 311
101 102 103 102 98 94 90 85 83 75 61 43 48 35 27 52 75 21 338 321 338 330 321 302 190 317 353 316 300 302 309 323 323 299 259 251 254 250 236 250 283 303 314
108 106 101 99 98 95 88 73 54 37 32 19 22 28 40 40 96 59 354 332 339 328 325 333 48 59 321 302 288 287 306 313 303 299 295 289 282 277 258 253 272 290 306
109 107 106 102 97 95 83 56 16 346 334 1 11 8 41 70 46 56 326 308 308 312 322 340 359 344 318 301 288 292 298 290 284 292 298 306 308 310 312 308 297 289 287
109 108 112 113 93 53 3 353 335 337 345 358 0 7 17 20 82 199 248 261 265 292 329 334 314 305 299 284 254 271 281 277 293 308 315 317 318 323 314 301 294 292 296
114 119 137 152 161 67 335 346 357 1 1 4 4 4 11 18 16 5 346 332 300 296 320 311 288 278 274 285 291 272 273 303 319 318 319 321 321 319 314 314 318 328 334
129 145 195 282 33 8 22 24 5 38 27 359 4 3 6 8 18 348 329 335 338 341 327 315 321 328 336 349 338 331 329 328 325 327 330 329 332 337 341 342 335 333 346
184 207 268 297 360 330 75 115 71 51 80 57 21 355 7 15 341 326 320 314 307 307 309 322 339 348 352 351 348 349 353 351 346 345 347 345 343 346 351 349 347 350 -0
309 335 324 339 348 337 4 44 122 135 155 163 76 350 340 338 329 326 325 318 302 299 311 343 350 352 354 353 354 356 355 355 353 351 352 352 350 351 354 356 1 2 12
274 154 291 345 5 32 43 37 38 57 116 131 153 167 327 325 320 321 318 313 324 324 356 356 353 354 359 357 359 359 354 354 357 352 354 355 354 354 357 1 11 9 7
289 13 25 28 56 70 68 56 56 53 56 59 78 113 266 278 258 279 304 348 9 11 11 7 3 0 -0 355 355 354 349 352 356 349 355 355 353 353 357 1 12 15 0
129 72 323 143 110 105 95 77 68 63 60 59 53 33 9 355 18 19 14 14 11 14 9 4 4 0 355 353 352 353 352 355 356 355 355 354 354 352 354 3 9 10 15
122 131 183 204 100 94 93 86 80 69 67 67 64 47 341 335 14 16 16 19 16 9 3 353 352 357 356 355 355 352 352 356 359 357 353 352 352 352 356 6 12 14 15
118 144 150 105 106 99 91 100 90 79 75 73 86 117 267 302 10 14 18 18 13 6 2 350 345 355 0 356 349 344 350 356 357 354 347 346 349 358 7 13 18 22 17
145 137 132 122 116 129 186 116 93 86 88 90 83 63 42 14 21 18 16 12 7 5 1 354 350 359 0 352 344 340 351 353 344 337 334 342 352 5 13 17 21 29 34
129 143 135 133 135 139 117 105 98 90 88 90 78 57 38 22 19 17 10 8 5 5 4 2 0 0 359 357 350 355 8 348 330 323 330 339 1 12 17 22 26 23 25
136 137 141 134 129 115 107 109 104 99 94 87 79 56 36 23 19 15 11 9 5 10 8 9 5 6 3 6 7 4 353 333 322 322 319 347 16 17 18 26 27 29 25
130 134 141 133 126 116 117 116 108 104 98 90 78 59 39 25 21 17 15 12 6 13 12 12 10 17 13 10 10 359 344 336 333 324 315 355 28 21 5 19 24 29 29